[Date Prev][Date Next][Thread Prev][Thread Next] - [Date Index][Thread Index][Author Index]
2 Line ISS Keps 7-4
- Subject: [sarex] 2 Line ISS Keps 7-4
- From: "Dave Larsen PhD" <doc@xxxxxxxxxxx>
- Date: Sun, 4 Jul 2004 03:46:16 -0700
ISS
1 25544U 98067A 04186.34073440 .00013391 00000-0 11565-3 0 1376
2 25544 51.6318 238.2550 0005610 323.4834 93.9185 15.69572342321016
----
Via the sarex mailing list at AMSAT.ORG courtesy of AMSAT-NA.
To unsubscribe, send "unsubscribe sarex" to Majordomo@amsat.org
AMSAT Home